Petersburg, WV

3:52 PM EDT on August 28, 2016 (GMT -0400)
Petersburg

Weather History for KW99 - February, 2014

Change the Weather History Date:

Wednesday, February 5, 2014

  Actual Average (KEKN) Record (KEKN)
Temperature  
Mean Temperature 40 °F 30 °F  
Max Temperature 49 °F 41 °F 64 °F (2008)
Min Temperature 31 °F 20 °F -22 °F (1996)
Degree Days  
Heating Degree Days 25 35  
Month to date heating degree days 175  
Since 1 July heating degree days 3576  
Cooling Degree Days 0 0  
Month to date cooling degree days 0  
Year to date cooling degree days 0  
Moisture  
Dew Point 32 °F    
Average Humidity 79    
Maximum Humidity 96    
Minimum Humidity 62    
Precipitation  
Precipitation 0.99 in 0.10 in 1.90 in (1927)
Month to date precipitation 0.53  
Year to date precipitation 3.76  
Snow  
Snow 0.00 in - - ()
Month to date snowfall  
Since 1 September snowfall  
Snow Depth -    
Sea Level Pressure  
Sea Level Pressure 29.89 in    
Wind  
Wind Speed 5 mph (West)    
Max Wind Speed 39 mph    
Max Gust Speed 52 mph    
Visibility 7 miles    
Events Rain , Snow    
T = Trace of Precipitation, MM = Missing Value Source: NWS Daily Summary

Daily Weather History Graph

Daily Weather History Graph

Search for Another Location

Airport or City:

Trip Planner

Search our weather history database for the weather conditions in past years. The results will help you decide how hot, cold, wet, or windy it might be!

Date:

Astronomy

Feb. 05, 2014 Rise Set
Actual Time 7:19 AM EST 5:42 PM EST
Civil Twilight 6:51 AM EST 6:10 PM EST
Nautical Twilight 6:19 AM EST 6:42 PM EST
Astronomical Twilight 5:48 AM EST 7:13 PM EST
Moon 10:36 AM EST (2/5) No Moon Set
Length of Visible Light 11h 19m
Length of Day
10h 23m
Waxing Crescent, 39% of the Moon is Illuminated
Feb 5
Waxing Crescent
Feb 6
First Quarter
Feb 14
Full
Feb 22
Last Quarter
Mar 1
New

Hourly Weather History & Observations

Time (EST) Temp. Windchill Dew Point Humidity Pressure Visibility Wind Dir Wind Speed Gust Speed Precip Events Conditions
12:15 AM 33.4 °F - 32.0 °F 94% 30.08 in 2.0 mi Calm Calm - 0.01 in Snow Light Snow
12:35 AM 34.0 °F - 32.0 °F 92% 30.07 in 1.5 mi Calm Calm - 0.06 in Snow Light Snow
12:55 AM 34.9 °F - 32.9 °F 92% 30.06 in 5.0 mi Calm Calm - 0.07 in   Overcast
1:15 AM 34.5 °F - 32.7 °F 93% 30.03 in 7.0 mi Calm Calm - N/A   Overcast
1:35 AM 34.3 °F - 32.5 °F 93% 30.02 in 7.0 mi Calm Calm - N/A   Overcast
1:55 AM 34.3 °F - 32.9 °F 94% 30.00 in 7.0 mi Calm Calm - N/A   Overcast
2:15 AM 34.9 °F - 33.1 °F 93% 29.99 in 5.0 mi Calm Calm - N/A   Overcast
2:35 AM 34.7 °F - 32.9 °F 93% 29.97 in 5.0 mi Calm Calm - N/A   Overcast
2:55 AM 34.7 °F - 32.9 °F 93% 29.96 in 5.0 mi Calm Calm - N/A   Overcast
3:15 AM 34.7 °F - 32.7 °F 92% 29.95 in 3.0 mi Calm Calm - N/A   Overcast
3:35 AM 35.2 °F - 33.3 °F 92% 29.96 in 3.0 mi Calm Calm - N/A   Overcast
3:55 AM 35.2 °F - 33.4 °F 93% 29.95 in 1.5 mi Calm Calm - N/A Snow Light Snow
4:15 AM 35.6 °F - 33.8 °F 93% 29.94 in 1.5 mi Calm Calm - N/A Snow Light Snow
4:35 AM 35.8 °F - 34.0 °F 93% 29.91 in 1.2 mi Calm Calm - N/A Snow Light Snow
4:55 AM 35.6 °F - 34.0 °F 94% 29.90 in 1.8 mi Calm Calm - N/A Snow Light Snow
5:15 AM 35.6 °F - 34.2 °F 94% 29.89 in 2.0 mi Calm Calm - N/A   Overcast
5:35 AM 35.6 °F - 34.2 °F 94% 29.88 in 1.5 mi Calm Calm - N/A Snow Light Snow
5:55 AM 35.8 °F - 34.3 °F 94% 29.87 in 3.0 mi Calm Calm - N/A Snow Light Snow
6:15 AM 35.6 °F - 34.3 °F 95% 29.85 in 3.0 mi Calm Calm - N/A   Overcast
6:35 AM 35.1 °F - 33.8 °F 95% 29.84 in 5.0 mi Calm Calm - N/A   Overcast
7:55 AM 33.4 °F - 32.2 °F 95% 29.78 in 7.0 mi Calm Calm - N/A   Overcast
8:15 AM 33.6 °F - 32.4 °F 95% 29.77 in 2.5 mi Calm Calm - N/A Snow Light Snow
8:35 AM 34.3 °F - 33.1 °F 95% 29.76 in 3.0 mi Calm Calm - 0.01 in   Overcast
8:55 AM 35.2 °F - 34.0 °F 95% 29.76 in 5.0 mi Calm Calm - 0.01 in   Overcast
9:15 AM 37.8 °F - 36.7 °F 96% 29.74 in 5.0 mi Calm Calm - 0.08 in   Overcast
9:35 AM 39.6 °F - 38.3 °F 95% 29.73 in 5.0 mi Calm Calm - 0.66 in   Overcast
9:55 AM 41.2 °F - 39.4 °F 93% 29.73 in 7.0 mi Calm Calm - 0.67 in   Overcast
10:15 AM 43.0 °F 40.3 °F 39.6 °F 88% 29.73 in 7.0 mi NW 4.6 mph - 0.01 in   Overcast
10:35 AM 40.1 °F - 36.5 °F 87% 29.73 in 5.0 mi Calm Calm - 0.15 in   Overcast
10:55 AM 41.9 °F - 37.4 °F 84% 29.74 in 7.0 mi Calm Calm - 0.18 in Rain Rain
11:15 AM 44.1 °F - 40.5 °F 87% 29.74 in 7.0 mi Calm Calm - 0.01 in   Overcast
11:35 AM 39.7 °F 34.9 °F 34.3 °F 81% 29.72 in 7.0 mi SE 6.9 mph - 0.01 in   Overcast
11:55 AM 38.7 °F 35.2 °F 34.9 °F 86% 29.71 in 5.0 mi ESE 4.6 mph - 0.01 in   Overcast
12:15 PM 42.3 °F 40.5 °F 37.4 °F 83% 29.70 in 7.0 mi East 3.5 mph - N/A   Mostly Cloudy
12:35 PM 41.2 °F 37.3 °F 35.8 °F 81% 29.69 in 7.0 mi SE 5.8 mph - N/A   Mostly Cloudy
12:55 PM 45.7 °F 44.4 °F 40.5 °F 82% 29.67 in 10.0 mi WSW 3.5 mph - N/A   Mostly Cloudy
1:15 PM 46.2 °F 41.7 °F 39.6 °F 78% 29.68 in 10.0 mi West 9.2 mph 17.3 mph N/A   Overcast
1:35 PM 49.3 °F - 38.8 °F 67% 29.68 in 10.0 mi WSW 16.1 mph 24.2 mph N/A   Overcast
1:55 PM 48.0 °F - 38.1 °F 69% 29.69 in 10.0 mi WSW 19.6 mph 25.3 mph N/A   Light Drizzle
2:15 PM 48.6 °F - 38.1 °F 67% 29.70 in 10.0 mi WSW 12.7 mph 23.0 mph N/A   Overcast
2:35 PM 48.2 °F - 36.3 °F 63% 29.71 in 10.0 mi West 25.3 mph 32.2 mph N/A   Overcast
2:55 PM 47.3 °F - 34.7 °F 62% 29.74 in 10.0 mi WSW 18.4 mph 39.1 mph N/A   Overcast
3:15 PM 46.4 °F 40.4 °F 35.1 °F 65% 29.75 in 10.0 mi West 13.8 mph 17.3 mph N/A   Overcast
3:35 PM 45.5 °F 38.6 °F 33.3 °F 62% 29.77 in 10.0 mi West 16.1 mph 33.4 mph N/A   Overcast
3:55 PM 45.0 °F 38.9 °F 33.1 °F 63% 29.78 in 10.0 mi West 12.7 mph 23.0 mph N/A   Overcast
4:15 PM 44.2 °F 39.2 °F 32.0 °F 62% 29.80 in 10.0 mi WSW 9.2 mph 21.9 mph N/A   Overcast
4:35 PM 43.3 °F 35.2 °F 32.0 °F 64% 29.82 in 10.0 mi WSW 18.4 mph 29.9 mph N/A   Overcast
4:55 PM 42.8 °F 38.0 °F 31.8 °F 65% 29.85 in 10.0 mi West 8.1 mph 28.8 mph N/A   Overcast
5:15 PM 41.7 °F 31.2 °F 31.1 °F 66% 29.86 in 10.0 mi WSW 27.6 mph 35.7 mph N/A   Overcast
5:35 PM 41.9 °F 35.4 °F 29.8 °F 62% 29.88 in 10.0 mi WNW 11.5 mph 39.1 mph N/A   Overcast
5:55 PM 40.5 °F 30.2 °F 29.7 °F 65% 29.91 in 10.0 mi West 24.2 mph 46.0 mph N/A   Overcast
6:15 PM 40.1 °F 28.6 °F 28.8 °F 64% 29.93 in 10.0 mi West 29.9 mph 39.1 mph N/A   Overcast
6:35 PM 39.2 °F 27.0 °F 27.7 °F 63% 29.94 in 10.0 mi West 32.2 mph 42.6 mph N/A   Overcast
6:55 PM 38.5 °F 25.8 °F 27.1 °F 64% 29.94 in 10.0 mi West 33.4 mph 46.0 mph N/A   Overcast
7:15 PM 37.9 °F 24.2 °F 26.6 °F 64% 29.93 in 10.0 mi WNW 39.1 mph 51.8 mph 0.04 in   Overcast
7:35 PM 37.0 °F 24.3 °F 25.3 °F 63% 29.97 in 10.0 mi West 31.1 mph 43.7 mph 0.05 in   Scattered Clouds
7:55 PM 36.7 °F 26.6 °F 24.8 °F 62% 30.00 in 10.0 mi West 18.4 mph 28.8 mph 0.05 in   Scattered Clouds
8:15 PM 36.5 °F 28.2 °F 24.6 °F 62% 30.04 in 10.0 mi WNW 12.7 mph 20.7 mph N/A   Mostly Cloudy
8:35 PM 36.0 °F 27.1 °F 24.6 °F 63% 30.06 in 10.0 mi NNW 13.8 mph 21.9 mph N/A   Overcast
8:55 PM 35.6 °F 26.6 °F 25.0 °F 65% 30.07 in 10.0 mi West 13.8 mph - N/A   Overcast
9:15 PM 34.9 °F 28.3 °F 25.3 °F 68% 30.08 in 10.0 mi WNW 8.1 mph 23.0 mph N/A   Overcast
9:35 PM 34.9 °F 28.3 °F 25.9 °F 70% 30.09 in 10.0 mi WNW 8.1 mph - N/A   Overcast
9:55 PM 34.3 °F 25.9 °F 24.8 °F 68% 30.12 in 10.0 mi NW 11.5 mph - N/A   Overcast
10:15 PM 33.8 °F 21.6 °F 23.7 °F 67% 30.13 in 10.0 mi WNW 23.0 mph 34.5 mph N/A   Overcast
10:35 PM 33.3 °F 25.7 °F 22.6 °F 65% 30.14 in 10.0 mi NNW 9.2 mph - N/A   Overcast
10:55 PM 32.0 °F 24.2 °F 21.0 °F 64% 30.14 in 10.0 mi NNW 9.2 mph 17.3 mph N/A   Overcast
11:15 PM 32.0 °F 25.6 °F 20.5 °F 63% 30.14 in 10.0 mi NW 6.9 mph 24.2 mph N/A   Overcast
11:35 PM 31.8 °F - 21.2 °F 65% 30.16 in 10.0 mi Calm Calm - N/A   Overcast
11:55 PM 31.6 °F 22.6 °F 20.5 °F 63% 30.17 in 10.0 mi NW 11.5 mph 19.6 mph N/A   Overcast